• In Hungary
  • List of Countries
  • For 7 days
  • Water Temperature
  • Satellite Maps
  • Weather Map
  • News
  • Weather Widgets
  • user-avatar
    Login

    Hourly Weather Taldy-Kuduk

    Today, 22 July, Sunday

    Time Temperature Precipitation Wind Pressure Humidity
    00:00 +18°C° 0 mm 8 mps 738 mmHg 73%
    01:00 +18°C° 0 mm 8 mps 738 mmHg 72%
    02:00 +17°C° 0 mm 8 mps 738 mmHg 72%
    03:00 +16°C° 0 mm 8 mps 738 mmHg 73%
    04:00 +15°C° 0 mm 8 mps 738 mmHg 73%
    05:00 +15°C° 0 mm 9 mps 738 mmHg 71%
    06:00 +16°C° 0 mm 9 mps 738 mmHg 69%
    07:00 +16°C° 0 mm 10 mps 739 mmHg 67%
    08:00 +17°C° 0 mm 10 mps 739 mmHg 61%
    09:00 +18°C° 0 mm 10 mps 739 mmHg 56%
    10:00 +21°C° 0 mm 10 mps 739 mmHg 50%
    11:00 +21°C° 0 mm 10 mps 740 mmHg 46%
    12:00 +22°C° 0 mm 10 mps 740 mmHg 42%
    13:00 +23°C° 0 mm 10 mps 740 mmHg 37%
    14:00 +23°C° 0 mm 10 mps 740 mmHg 36%
    15:00 +23°C° 0 mm 10 mps 740 mmHg 35%
    16:00 +23°C° 0 mm 10 mps 740 mmHg 34%
    17:00 +22°C° 0 mm 9 mps 741 mmHg 37%
    18:00 +21°C° 0 mm 8 mps 741 mmHg 39%
    19:00 +20°C° 0 mm 8 mps 741 mmHg 41%
    20:00 +18°C° 0 mm 7 mps 741 mmHg 44%
    21:00 +17°C° 0 mm 6 mps 742 mmHg 47%
    22:00 +16°C° 0 mm 6 mps 742 mmHg 50%
    23:00 +15°C° 0 mm 6 mps 743 mmHg 53%

    Tomorrow, 23 July, Monday

    Time Temperature Precipitation Wind Pressure Humidity
    00:00 +14°C° 0 mm 5 mps 743 mmHg 55%
    01:00 +14°C° 0 mm 5 mps 743 mmHg 58%
    02:00 +13°C° 0 mm 5 mps 743 mmHg 60%
    03:00 +13°C° 0 mm 5 mps 744 mmHg 63%
    04:00 +12°C° 0 mm 5 mps 744 mmHg 65%
    05:00 +13°C° 0 mm 5 mps 744 mmHg 63%
    06:00 +14°C° 0 mm 5 mps 744 mmHg 61%
    07:00 +15°C° 0 mm 6 mps 745 mmHg 59%
    08:00 +16°C° 0 mm 6 mps 745 mmHg 53%
    09:00 +19°C° 0 mm 6 mps 745 mmHg 47%
    10:00 +21°C° 0 mm 6 mps 745 mmHg 41%
    11:00 +22°C° 0 mm 5 mps 745 mmHg 38%
    12:00 +23°C° 0 mm 5 mps 745 mmHg 34%
    13:00 +25°C° 0 mm 5 mps 745 mmHg 30%
    14:00 +25°C° 0 mm 5 mps 744 mmHg 30%
    15:00 +25°C° 0 mm 5 mps 744 mmHg 29%
    16:00 +26°C° 0 mm 5 mps 744 mmHg 29%
    17:00 +25°C° 0 mm 5 mps 744 mmHg 33%
    18:00 +23°C° 0 mm 4 mps 744 mmHg 38%
    19:00 +22°C° 0 mm 4 mps 744 mmHg 42%
    20:00 +21°C° 0 mm 4 mps 745 mmHg 47%
    21:00 +20°C° 0 mm 4 mps 745 mmHg 52%
    22:00 +18°C° 0 mm 3 mps 745 mmHg 57%
    23:00 +18°C° 0 mm 3 mps 745 mmHg 60%

    Day after tomorrow, 24 July, Tuesday

    Time Temperature Precipitation Wind Pressure Humidity
    00:00 +17°C° 0 mm 3 mps 745 mmHg 63%
    01:00 +16°C° 0 mm 3 mps 746 mmHg 67%
    02:00 +16°C° 0 mm 3 mps 746 mmHg 69%
    03:00 +16°C° 0 mm 3 mps 746 mmHg 71%
    04:00 +14°C° 0 mm 3 mps 746 mmHg 74%
    05:00 +17°C° 0 mm 3 mps 746 mmHg 70%
    06:00 +18°C° 0 mm 3 mps 746 mmHg 66%
    07:00 +19°C° 0 mm 4 mps 746 mmHg 62%
    08:00 +21°C° 0 mm 4 mps 746 mmHg 57%
    09:00 +23°C° 0 mm 4 mps 746 mmHg 51%
    10:00 +26°C° 0 mm 5 mps 746 mmHg 46%
    11:00 +27°C° 0 mm 5 mps 746 mmHg 43%
    12:00 +28°C° 0 mm 5 mps 746 mmHg 40%
    13:00 +29°C° 0 mm 5 mps 746 mmHg 36%
    14:00 +29°C° 0 mm 5 mps 746 mmHg 36%
    15:00 +29°C° 0 mm 5 mps 746 mmHg 36%
    16:00 +30°C° 0 mm 5 mps 745 mmHg 36%
    17:00 +29°C° 0 mm 5 mps 746 mmHg 39%
    18:00 +28°C° 0 mm 4 mps 746 mmHg 43%
    19:00 +27°C° 0 mm 4 mps 746 mmHg 47%
    20:00 +26°C° 0 mm 4 mps 746 mmHg 50%
    21:00 +25°C° 0 mm 3 mps 746 mmHg 53%
    22:00 +24°C° 0 mm 3 mps 747 mmHg 56%
    23:00 +22°C° 0 mm 3 mps 747 mmHg 58%

    25 July, Wednesday

    Time Temperature Precipitation Wind Pressure Humidity
    00:00 +21°C° 0 mm 3 mps 747 mmHg 60%
    01:00 +21°C° 0 mm 3 mps 747 mmHg 62%
    02:00 +20°C° 0 mm 3 mps 747 mmHg 64%
    03:00 +20°C° 0 mm 3 mps 747 mmHg 66%
    04:00 +19°C° 0 mm 3 mps 747 mmHg 68%
    05:00 +20°C° 0 mm 3 mps 747 mmHg 65%
    06:00 +21°C° 0 mm 3 mps 747 mmHg 61%
    07:00 +22°C° 0 mm 3 mps 747 mmHg 58%
    08:00 +25°C° 0 mm 4 mps 747 mmHg 53%
    09:00 +27°C° 0 mm 4 mps 747 mmHg 47%
    10:00 +28°C° 0 mm 4 mps 747 mmHg 41%
    11:00 +29°C° 0 mm 4 mps 747 mmHg 40%
    12:00 +29°C° 0 mm 4 mps 747 mmHg 38%
    13:00 +29°C° 0 mm 5 mps 747 mmHg 37%
    14:00 +29°C° 0 mm 4 mps 747 mmHg 37%
    15:00 +29°C° 0 mm 4 mps 747 mmHg 37%
    16:00 +29°C° 0 mm 4 mps 747 mmHg 37%
    17:00 +29°C° 0 mm 4 mps 747 mmHg 40%
    18:00 +28°C° 0 mm 4 mps 747 mmHg 43%
    19:00 +27°C° 0 mm 3 mps 747 mmHg 46%
    20:00 +26°C° 0 mm 3 mps 747 mmHg 48%
    21:00 +26°C° 0 mm 4 mps 747 mmHg 51%
    22:00 +25°C° 0 mm 4 mps 747 mmHg 53%
    23:00 +23°C° 0 mm 4 mps 747 mmHg 54%

    26 July, Thursday

    Time Temperature Precipitation Wind Pressure Humidity
    00:00 +23°C° 0 mm 4 mps 747 mmHg 55%
    01:00 +23°C° 0 mm 4 mps 747 mmHg 57%
    02:00 +22°C° 0 mm 4 mps 747 mmHg 58%
    03:00 +22°C° 0 mm 4 mps 747 mmHg 60%
    04:00 +21°C° 0 mm 4 mps 747 mmHg 61%
    05:00 +22°C° 0 mm 4 mps 748 mmHg 59%
    06:00 +22°C° 0 mm 5 mps 748 mmHg 57%
    07:00 +22°C° 0 mm 5 mps 748 mmHg 55%
    08:00 +25°C° 0 mm 5 mps 748 mmHg 50%
    09:00 +26°C° 0 mm 5 mps 748 mmHg 44%
    10:00 +27°C° 0 mm 5 mps 748 mmHg 39%
    11:00 +28°C° 0 mm 5 mps 748 mmHg 35%
    12:00 +29°C° 0 mm 5 mps 748 mmHg 32%
    13:00 +30°C° 0 mm 5 mps 748 mmHg 29%
    14:00 +30°C° 0 mm 5 mps 747 mmHg 28%
    15:00 +30°C° 0 mm 5 mps 747 mmHg 27%
    16:00 +30°C° 0 mm 5 mps 747 mmHg 26%
    17:00 +29°C° 0 mm 4 mps 747 mmHg 29%
    18:00 +28°C° 0 mm 4 mps 747 mmHg 32%
    19:00 +28°C° 0 mm 3 mps 747 mmHg 35%
    20:00 +26°C° 0 mm 3 mps 747 mmHg 38%
    21:00 +25°C° 0 mm 3 mps 747 mmHg 41%
    22:00 +22°C° 0 mm 3 mps 747 mmHg 44%
    23:00 +22°C° 0 mm 3 mps 747 mmHg 46%

    27 July, Friday

    Time Temperature Precipitation Wind Pressure Humidity
    00:00 +22°C° 0 mm 3 mps 747 mmHg 48%
    01:00 +21°C° 0 mm 2 mps 747 mmHg 50%
    02:00 +21°C° 0 mm 3 mps 747 mmHg 52%
    03:00 +21°C° 0 mm 3 mps 747 mmHg 55%
    04:00 +21°C° 0 mm 3 mps 747 mmHg 58%
    05:00 +22°C° 0 mm 3 mps 747 mmHg 56%
    06:00 +24°C° 0 mm 3 mps 747 mmHg 54%
    07:00 +25°C° 0 mm 4 mps 748 mmHg 52%
    08:00 +27°C° 0 mm 4 mps 748 mmHg 46%
    09:00 +29°C° 0 mm 5 mps 748 mmHg 40%
    10:00 +30°C° 0 mm 5 mps 748 mmHg 34%
    11:00 +32°C° 0 mm 5 mps 747 mmHg 32%
    12:00 +32°C° 0 mm 5 mps 747 mmHg 31%
    13:00 +33°C° 0 mm 5 mps 747 mmHg 30%
    14:00 +33°C° 0 mm 5 mps 747 mmHg 30%
    15:00 +33°C° 0 mm 5 mps 747 mmHg 31%
    16:00 +33°C° 0 mm 5 mps 747 mmHg 31%
    17:00 +32°C° 0 mm 4 mps 747 mmHg 34%
    18:00 +30°C° 0 mm 4 mps 747 mmHg 36%
    19:00 +29°C° 0 mm 3 mps 746 mmHg 39%
    20:00 +28°C° 0 mm 3 mps 747 mmHg 42%
    21:00 +27°C° 0 mm 3 mps 747 mmHg 45%
    22:00 +26°C° 0 mm 3 mps 747 mmHg 48%
    23:00 +25°C° 0 mm 3 mps 747 mmHg 51%
    Show more